VEERY-RL1 (47965 NORAD) Tracking and Keplerian Element Data

This shows tracking and keplerian element data for the satellite.

Feedback or suggestion? Click here.




ElementValue
Catalog47965
NameVEERY-RL1
Epoch Orbit1326
Epoch Day169.91084954
Epoch Year2021
RAAN358.164
Inclination45.0049
Eccentricity0.0012222
Argument of Perigee34.4792
Mean Anonmoly325.6874
Mean Motion15.06263452
Decay Rate1.05E-05
L11 47965U 21023A 21169.91084954 .00001050 00000-0 86585-4 0 9990
L22 47965 45.0049 358.1640 0012222 34.4792 325.6874 15.06263452 13261

Live tracking and technical data element details for VEERY-RL1 (NORAD 47965). VEERY-RL1 can be tracked NOW for your location showing map with azimuth and elevation plus other details from your city location.

Track the satellite on the map from your city or location and see movement details for azimuth, elevation, latitude, longitude, range, height, and movement on the map or in text.







IsCatalogInMostPopularTable: catalog: 47965, numindb: 42
Update: records affected: 1



GetName: 47965 VEERY-RL1

Hit Count: updated at: Mon, 21 Jun 2021 03:32:36 GMT